Regional Weather Roundup
Issued by NWS Charleston, SC

Current Version | Previous Version | Graphics & Text | Print | Product List | Glossary On
Versions: 1 2 3 4 5 6 7 8 9 10 11 12 13 14 15 16 17 18 19 20 21 22 23 24 25 26 27 28 29 30 31 32 33 34 35 36 37 38 39 40 41 42 43 44 45 46 47 48 49 50
000
ASUS42 KCHS 231712
RWRCHS

REGIONAL WEATHER ROUNDUP
NATIONAL WEATHER SERVICE CHARLESTON SC
100 PM EDT FRI JUN 23 2017

NOTE: "FAIR" INDICATES FEW OR NO CLOUDS BELOW 12,000 FEET WITH NO
SIGNIFICANT WEATHER AND/OR OBSTRUCTIONS TO VISIBILITY.

NOT ALL STATIONS ARE QUALITY CONTROLLED. USE DATA WITH CAUTION...
ESPECIALLY DEWPOINT OBSERVATIONS.

SCZ027-030-031-034>040-042>050-231800-
...SOUTHEAST SOUTH CAROLINA...

CITY           SKY/WX    TMP DP  RH WIND       PRES   REMARKS
N CHARLESTON   PTSUNNY   88  75  65 SW13      30.03F HX  97
WATERFRONT PRK   N/A     83  76  79 SW10G17   30.03F HX  91
JOHNS ISLAND   CLOUDY    86  77  74 SW13G20   30.05S HX  97
PINOPOLIS        N/A     86  79  79 SW7       29.97F HX  99
MONCKS CORNER  FAIR      86  75  70 SW7       30.03S HX  95
SUMMERVILLE    PTSUNNY   86  77  74 S3        30.04F HX  97
BEAUFORT MCAS  CLOUDY    88  78  72 S8        30.03F HX 101
BEAUFORT ARPT  FAIR      86  77  74 S9        30.04S HX  97
HILTON HEAD IS PTSUNNY   86  77  74 S13G20    30.05F HX  97
WALTERBORO     CLOUDY    86  75  70 S7        30.03F HX  95
ALLENDALE      FAIR      88  75  66 S9        30.01F HX  97

...SOUTHERN MIDLANDS AND PEE DEE...

CITY           SKY/WX    TMP DP  RH WIND       PRES   REMARKS
GEORGETOWN     PTSUNNY   86  79  79 S9G16     30.04F HX  99
KINGSTREE      PTSUNNY   86  73  66 S9        30.02F HX  93
ORANGEBURG     PTSUNNY   87  75  67 SW13      30.02F HX  96
BARNWELL       CLOUDY    91  75  59 SW8G16    30.02F HX 102
AIKEN          FAIR      88  70  55 SW9       30.05F HX  92
MANNING        FAIR      86  79  79 S24       30.02F HX  99
COLUMBIA       PTSUNNY   91  69  48 SW13      29.99F HX  96
SUMTER         PTSUNNY   88  73  60 SW8G17    29.99F HX  95
FLORENCE       MOSUNNY   87  74  64 SW10      30.01F HX  95
MYRTLE BEACH   PTSUNNY   84  77  79 S13       30.04F HX  94
N MYRTLE BEACH CLOUDY    85  76  74 S18       30.02F HX  94

$$

GAZ063-065-086>088-099>101-113>116-118-119-134>141-150-231800-
...SOUTHEAST GEORGIA...

CITY           SKY/WX    TMP DP  RH WIND       PRES   REMARKS
SAVANNAH ARPT  PTSUNNY   90  74  59 S10       30.03F HX  99
HUNTER AAF     MOSUNNY   89  77  67 S5        30.00F HX 100
FORT STEWART   CLOUDY    89  75  62 SE6       30.01F HX  99
STATESBORO     PTSUNNY   87  77  72 SW7       30.03F HX  99
SYLVANIA       PTSUNNY   89  79  73 SW5       30.04F HX 104
CLAXTON        PTSUNNY  N/A N/A N/A CALM      30.02F

...CSRA...CENTRAL AND FAR SOUTHEAST GEORGIA...

CITY           SKY/WX    TMP DP  RH WIND       PRES   REMARKS
THOMSON        MOSUNNY   89  71  55 W8        30.06F HX  94
AUGUSTA-BUSH   SUNNY     92  71  50 S8G21     30.00F HX  98
AUGUSTA-DANIEL MOSUNNY   91  65  41 SW13G20   30.02F HX  93
SWAINSBORO     PTSUNNY   88  73  62 SW7       30.04F HX  96
VIDALIA        CLOUDY    88  75  66 SW7       30.03F HX  97
EASTMAN        PTSUNNY   91  62  37 SW9       30.05F HX  92
HAZLEHURST     FAIR      90  77  65 S6        30.02F HX 102
ALMA           PTSUNNY   88  74  63 S9        30.03F HX  96
WAYCROSS       PTSUNNY   90  81  73 SW7       30.04F HX 109
JESUP          FAIR      90  72  55 SW7       30.04F HX  96
BAXLEY         PTSUNNY   90  81  74 S9        30.03F HX 108
BRUNSWICK      PTSUNNY   90  77  66 SW9       30.05F HX 102
SAINT SIMONS   MOSUNNY   86  77  74 S12       30.05S HX  97

$$

SCZ027-028-034-036>038-045-046-048>050-GAZ119-141-231800-
...LAKE AND SUPPLEMENTAL COASTAL OBSERVATIONS...

STATION/POSITION TIME  TEMP    WIND        PRES    WAVE   SWELL
                       AIR SEA DIR/SP/G            HT/PER HT/PER/DIR
                 (UTC) (F)     (DEG/KT/KT) (MB)    (FT/S) (FT/S/D)
WINYAH BAY       1545   84     210/ 12     1017.0
LAKE MURRAY      1620   84     220/  5/  7 1014.9F
ACE BASIN NERRS  1545   85     180/  2     1017.0
FORT PULASKI     1648   84 84  200/  8/ 14 1017.5F
SAPELO ISLAND    1600   87     210/  6     1018.0

$$

ANZ835-935-AMZ111-154-330-350-352-354-370-450-454-472-231800-
...C-MAN AND BUOY OBSERVATIONS...

STATION/POSITION TIME  TEMP    WIND        PRES    WAVE   SWELL
                       AIR SEA DIR/SP/G            HT/PER HT/PER/DIR
                 (UTC) (F)     (DEG/KT/KT) (MB)    (FT/S) (FT/S/D)
BUOY 41004       1650   81 81  220/ 16/ 17 1017.6F   4/ 5   2/150/ 8
BUOY 41008       1550   80 82  190/ 14/ 16 1017.9    3/ 5   2/110/ 9
FOLLY BEACH CMAN 1600   82     210/ 17/ 20 1018.3F
CAPERS NEARSHORE 1608   86 82  220/ 16/ 21 1017.4F
FRIPP NEARSHORE  1608   82 83  210/ 14/ 17 1017.4F


STATION/POSITION TIME  TEMP    WIND        PRES    WAVE   SWELL
                       AIR SEA DIR/SP/G            HT/PER HT/PER/DIR
                 (UTC) (F)     (DEG/KT/KT) (MB)    (FT/S) (FT/S/D)
5E ST. MARYS GA  1630      81                N/A     3/ 5
FRYING PAN BUOY  1650   81 81  220/ 16/ 19 1017.4F   4/ 8   2/130/ 8
BUOY 41025       1650   80 80  220/ 17/ 19 1016.2F   3/ 9   2/170/ 9
CAPE LOOKOUT NC  1600   82     220/ 12/ 14 1016.4F
BUOY 41002       1550   80 82  210/ 12/ 12 1019.7    4/ 8   3/ 80/ 8
BUOY 41010       1650   82 83  170/ 10/ 12 1018.9F   5/ 9   5/130/ 9
ST AUGUSTINE FL  NOT AVBL


$$



USA.gov is the U.S. government's official web portal to all federal, state and local government web resources and services.